Location: Brunsbüttel
(52.3892°N, 10.6138°E)
Time: 16:00:11
(UTC+00:00)

NOSS 2-1 (D) - Pass Details

Date: 19 May 2025
Orbit: 378 x 1697 km, 63.3° (Epoch: 16 June)

Event Time Altitude Azimuth Distance (km) Brightness Sun altitude
Exits shadow 22:35:47 47° 208° (SSW) 551 2.9 -17.2°
Maximum altitude 22:36:33 76° 136° (SE) 418 2.5 -17.2°
Drops below altitude 10° 22:39:32 10° 49° (NE) 1,405 5.8 -17.2°
Sets 22:41:29 0° 47° (NE) 2,264 7.0 -17.3°
